Reflectivity
-20 -20 -20 -20 -20 -20 -20 -20 -20 -20 0 -20 -20 -20 -20 -20 -20 9 -20 -20 -20 -20 -20 -20 -20 -20 -20 -20 -20 -20 -20 -20 -20 -20 -20 -17 -7 -20 -20 -20 -20 -20 -20
-20 -20 -20 -20 -20 -20 -20 -20 -20 -20 -20 -20 -20 3 -18 -20 3 -20 6 -20 -20 2 -20 -20 -20 -20 -20 -20 -20 -20 -20 -20 -20 -20 20 15 8 -10 -20 -18 -20 -20 -20
-20 -20 -20 -20 -20 -20 -20 -20 -20 -20 -20 -20 -3 -20 -16 32 18 -20 -20 -20 -20 2 -20 9 9 -20 -2 -20 16 -20 -20 -20 -20 -20 -20 -20 -20 -20 -20 -17 -18 -20 -20
-20 -20 -20 -20 -20 -20 -20 -20 -20 -20 -20 -20 -20 -20 -20 -10 -20 -20 -7 -9 2 -13 -10 -20 -20 -20 -20 -9 13 -20 -20 -20 -20 10 -20 -20 -20 -20 -20 -20 -20 -20 -20
-20 -20 -20 -20 -20 -20 -20 -20 -20 -20 -20 -20 -20 -20 5 -17 -1 -0 -17 -17 -20 -19 -17 -5 13 -14 12 5 -20 -18 -0 14 18 -1 1 -20 -20 -20 -20 -20 -20 -20 -20
-20 -20 -20 -20 -20 -20 -20 -20 -20 -20 -20 -20 -20 -20 -20 -7 6 23 24 -1 -20 -20 -20 -12 -4 -11 18 16 10 -16 7 -20 -20 -20 -20 -20 -20 -20 -20 -20 -20 -20 -20
-20 -20 -20 -20 -20 -20 -20 -20 -20 -20 -20 -20 -20 -20 -20 -0 16 19 -17 22 7 -20 -20 4 -6 12 13 19 17 -11 -1 -16 -20 -20 -20 -20 -20 -20 -20 -20 -20 -20 -20
-20 -20 -20 -20 -20 -20 -20 -20 -20 -20 -20 -20 -20 -20 -20 14 15 20 20 17 23 22 -20 -20 -20 -20 13 14 -1 1 -4 -16 -20 -20 -20 -20 -20 -20 -20 -20 -20 -20 -20
-20 -20 -20 -20 -20 -20 -20 -20 -20 -20 -20 -20 -20 -20 -13 17 19 25 24 22 19 17 -20 -20 -20 -20 6 10 -18 13 -5 -17 -20 -20 -20 -20 -20 -20 -20 -20 -20 -20 -20
-20 -20 -20 -20 -20 -20 -20 -20 -20 -20 -20 -20 -20 -20 4 20 17 21 21 11 -20 -20 -20 -20 -15 12 -5 3 25 -20 22 -8 -20 -20 -20 -20 -20 -20 -20 -20 -20 -20 -20
-20 -20 -20 -20 -20 -20 -20 -20 -20 -20 -20 -20 -20 -20 -20 18 6 12 9 -20 5 -1 -20 -13 -3 9 -14 -8 18 -14 -12 -14 -18 -20 -20 -20 -20 -20 -20 -20 -20 -20 -20
-20 -20 -20 -20 -20 -20 -20 -20 -20 -20 -20 -20 -20 -20 -20 4 -20 -20 -20 -20 9 -20 -20 6 -4 -12 9 -15 14 -10 -14 -20 -20 -20 -20 -20 -20 -20 -20 -20 -20 -20 -20
-20 -20 -20 -20 -20 -20 -20 -20 -20 -20 -20 -20 -20 -20 -20 -20 -20 -20 -20 -8 -2 -8 19 -1 -13 7 -17 6 7 5 -20 -20 -20 -20 -20 -20 -20 -20 -20 -20 -20 -20 -20
-20 -20 -20 -20 -20 -20 -20 -20 -20 -20 -20 -20 -20 -16 12 1 -20 -20 8 11 -5 22 -11 13 16 12 16 10 11 -13 -20 -20 -20 -20 -20 -20 -20 -20 -20 -20 -20 -20 -20
-20 -20 -18 11 -20 -20 -13 -20 -12 2 13 19 -20 3 -10 14 -10 9 11 10 22 26 10 20 10 7 26 5 -19 -20 -20 -12 -20 -20 -20 -20 -20 -20 -20 -20 -20 -20 -20
-3 -6 -20 -20 -2 -20 -20 -18 13 25 32 7 -20 -11 -19 -18 17 3 7 18 28 25 17 -15 24 19 -16 -20 -20 1 -16 -20 -20 -20 -20 -20 -20 -20 -20 -20 -20 -20 -20
5 -10 -20 -20 -13 39 38 37 32 18 8 0 -13 -19 -11 18 10 30 28 25 32 7 8 25 27 -6 -20 -11 -6 -20 -20 -20 -20 -20 -20 -20 -20 -20 -20 -20 -20 -20 -20
8 1 -20 -20 -17 9 15 10 23 14 6 -9 -19 -18 25 31 26 38 23 10 20 20 19 -10 -20 -19 12 -15 -20 -20 -20 -20 -20 -20 -20 -20 -20 -20 -20 -20 -20 -20 -20
-12 3 -7 -0 -16 1 4 11 -5 -20 -20 -20 -9 21 33 33 34 17 29 33 30 2 -20 -13 -2 -18 -20 -20 -20 -20 -20 -20 -20 -20 -20 -20 -20 -20 -20 -4 -7 -20 -20
-19 -20 -20 -20 -20 -20 -20 -20 -20 -19 5 19 20 34 37 26 28 27 14 -17 -18 5 8 -20 -20 -20 -20 -20 -20 -20 -20 -20 -20 -20 -20 -20 -20 -20 -13 3 -16 -20 -20
8 -15 -11 8 -13 -16 -20 -15 3 25 38 34 22 20 32 36 24 6 2 17 16 -2 -20 -20 -20 -20 -20 -20 -20 -20 -20 -20 -20 -20 -20 -20 -20 1 -1 -1 -18 -20 -16
13 16 4 22 22 26 25 29 28 37 38 22 24 31 33 27 22 15 11 -2 -20 -20 -20 -20 -20 -20 -20 -20 -20 -20 -20 -20 -20 -20 -20 -20 -3 -4 -16 -20 -20 -20 -20
0 32 14 28 34 30 33 34 35 35 36 35 26 25 19 16 12 -19 -20 -20 -20 -20 -20 -20 -20 -20 -20 -20 -20 -20 -20 -20 -20 -20 -20 0 -18 -20 -20 -20 -20 -20 -20
-13 -7 9 18 18 22 20 28 7 -20 -20 -12 -4 4 4 -20 -20 -20 -20 -20 -20 -20 -20 -20 -20 -20 -20 -20 -20 -20 -20 -20 -20 -20 -20 -20 -20 -20 -20 -20 -20 -20 -20
-4 16 -7 -15 -20 -16 -15 -2 -11 2 5 9 20 -4 -20 -20 -20 -20 -20 -20 -20 -20 -20 -20 -20 -20 -20 -20 -20 -20 -20 -13 -6 -20 -20 -20 -20 -20 -20 -20 -20 -20 -20
-17 -20 -20 -20 -20 -20 -20 -20 -20 -10 22 11 -20 -20 -20 -20 -20 -20 -20 -20 -20 -20 -20 -20 -20 -20 -20 -20 -20 -20 -20 -20 -20 -20 -20 -20 -20 -20 -20 -20 -20 -20 -20
Wind_Speed
10 9 10 14 11 9 9 9 10 8 11 9 10 8 7 5 4 8 13 11 11 10 9 6 7 6 6 6 6 4 4 3 2 3 3 3 1 2 2 3 3 4 3
9 10 8 7 8 9 8 8 8 12 10 10 8 5 4 3 3 2 6 9 9 10 9 9 6 7 6 6 5 4 3 2 2 3 3 2 4 3 3 1 2 3 2
11 9 9 10 9 8 9 8 8 9 10 10 8 6 6 3 3 2 5 5 11 9 11 8 7 6 5 5 3 3 4 3 2 6 4 2 2 2 3 1 0 3 2
8 9 9 8 9 9 8 9 9 9 8 11 10 16 11 9 3 3 5 5 7 10 12 11 8 6 4 5 3 4 3 4 3 3 4 3 3 2 4 3 2 3 3
9 10 10 9 8 7 8 7 7 10 9 10 13 11 11 5 6 6 11 8 7 8 9 11 8 7 4 5 5 4 5 1 4 3 2 3 2 2 2 3 4 4 3
1 4 4 4 3 3 3 4 5 7 8 13 12 15 16 14 11 9 8 7 6 6 8 10 8 7 6 5 4 5 7 3 5 4 3 2 2 1 2 1 3 4 4
3 3 3 2 3 4 5 4 3 4 7 8 13 14 14 16 18 15 10 12 8 7 9 11 10 7 7 5 5 6 4 5 4 4 2 2 2 2 2 2 3 3 3
7 4 4 2 4 7 6 6 6 5 5 10 12 12 15 9 8 7 9 8 9 9 10 11 10 10 8 5 5 4 3 6 4 5 3 2 1 1 2 3 2 4 3
9 10 11 8 4 5 6 7 7 5 7 11 12 12 12 14 12 10 8 7 9 9 12 11 11 9 8 6 6 4 4 3 4 3 2 1 0 1 1 1 3 3 4
9 7 6 7 7 7 8 8 8 8 10 13 11 12 13 12 13 11 11 12 10 11 12 12 11 9 9 8 5 4 5 4 2 2 2 1 1 1 1 2 2 3 4
8 9 13 7 8 8 8 9 8 9 10 11 12 14 13 14 14 12 13 13 12 13 13 12 10 8 7 6 6 5 5 4 3 1 2 2 2 2 2 2 2 3 2
7 8 10 13 12 12 12 12 9 12 14 14 14 13 14 14 14 14 13 13 13 12 12 11 10 8 6 6 5 3 4 3 2 2 2 3 2 3 3 2 4 3 4
8 8 8 11 11 11 8 9 12 16 16 15 15 15 15 14 13 15 15 14 13 12 11 10 9 8 7 6 6 4 3 1 0 2 3 4 4 4 3 3 4 4 5
8 10 11 11 16 15 15 10 12 16 16 16 16 16 15 14 13 15 16 14 13 11 11 10 9 7 7 6 5 5 4 3 3 4 4 4 4 4 5 5 6 5 4
8 9 6 9 14 11 14 15 13 14 14 16 15 15 15 14 14 14 14 14 11 11 11 10 7 6 7 3 5 5 3 4 5 5 5 4 6 11 10 5 4 5 4
6 8 5 11 14 12 13 14 13 14 14 13 16 13 14 15 14 15 14 13 11 10 10 8 7 6 4 9 8 4 3 4 4 5 6 5 9 9 13 16 18 15 8
4 7 8 10 10 10 9 13 13 13 15 14 14 14 15 14 13 13 13 12 9 8 9 7 6 5 5 8 7 6 3 3 4 5 5 6 5 9 6 12 18 16 16
6 7 6 9 10 11 12 13 12 13 15 14 14 14 15 13 11 12 10 11 8 8 6 6 5 5 4 7 5 5 3 4 5 5 5 5 6 7 11 7 6 6 7
7 8 7 10 11 12 11 12 13 13 14 14 15 15 13 10 11 11 9 8 8 7 4 4 5 6 4 5 2 3 3 4 5 5 6 7 7 14 19 11 6 7 6
8 9 10 10 12 11 13 15 14 15 14 12 12 11 9 10 10 10 9 5 6 6 4 4 4 5 4 2 2 2 1 3 4 6 6 13 14 20 21 13 9 8 8
10 10 11 12 12 12 14 15 14 13 9 9 10 10 9 8 7 9 8 6 5 5 5 5 4 3 2 1 6 7 2 3 3 4 5 5 18 21 23 22 7 9 14
9 10 11 10 10 9 14 13 13 9 7 9 10 9 6 6 6 9 6 6 5 5 4 4 3 4 5 8 8 10 11 13 4 5 5 7 19 22 21 15 19 20 16
9 9 10 9 8 8 11 12 8 10 8 9 10 9 7 6 5 7 6 4 4 4 3 3 3 3 3 4 10 12 14 14 8 5 13 19 20 19 12 17 19 16 6
11 11 12 11 10 9 9 10 11 10 10 10 8 7 7 6 5 4 4 4 4 4 3 3 3 2 3 4 4 3 4 10 9 12 5 11 14 14 13 10 9 6 6
10 11 10 10 9 9 9 9 10 10 10 8 7 6 5 6 5 4 4 4 3 3 3 2 1 2 4 4 9 10 7 7 8 12 3 5 5 7 7 7 7 7 7
11 12 11 11 9 9 9 8 8 9 10 8 5 4 4 4 4 4 4 7 6 5 4 3 1 2 6 11 13 16 18 17 18 5 5 6 6 7 8 8 9 8 10
Wind_Direction
232 232 235 231 223 226 211 206 170 188 171 167 170 179 191 181 178 157 171 153 148 143 139 132 129 132 134 145 145 126 105 26 314 86 14 349 8 163 181 183 156 177 175
251 249 244 242 226 218 217 212 197 176 178 172 181 163 157 109 110 111 116 133 131 139 135 137 136 133 127 133 148 134 129 122 314 97 100 10 341 344 269 239 194 182 142
239 247 247 239 237 223 209 206 205 197 187 155 123 93 80 51 85 85 103 126 135 138 126 116 123 119 117 131 120 122 127 168 43 61 123 73 239 343 337 331 343 60 59
226 223 222 237 229 233 223 202 191 197 188 154 147 158 165 170 181 120 123 114 122 128 126 121 125 121 119 120 154 144 130 128 124 77 48 69 134 151 325 340 353 20 42
233 235 230 222 227 226 231 245 216 178 195 174 170 163 152 113 118 121 123 116 119 126 137 123 124 122 132 125 121 101 108 104 115 103 124 54 37 75 126 282 311 339 340
121 199 215 204 238 212 265 204 199 250 196 178 172 161 149 142 144 149 135 136 132 131 135 120 117 117 117 118 116 102 90 104 96 97 101 126 147 189 127 262 302 269 288
57 23 6 264 227 204 183 220 222 236 227 168 156 152 152 155 160 160 154 151 145 147 141 130 130 126 122 128 120 106 118 103 99 111 118 109 142 141 130 149 262 275 302
331 284 241 196 249 251 237 204 207 238 171 151 140 132 137 138 140 151 154 153 158 153 137 129 124 122 117 120 108 105 109 105 110 120 118 127 121 105 155 183 183 307 271
6 349 341 344 304 225 231 218 213 196 143 134 132 133 133 139 144 142 143 150 140 142 132 127 129 127 127 128 131 119 111 117 131 131 123 121 244 138 177 165 171 183 295
327 303 282 288 295 286 279 206 200 185 152 141 135 130 132 128 134 141 143 144 142 137 132 131 132 137 132 132 128 128 127 135 116 130 139 185 238 231 246 243 231 200 213
285 290 297 276 260 270 257 254 190 147 138 126 122 125 131 134 135 135 142 141 138 138 134 132 129 127 128 129 124 134 130 137 103 102 198 239 238 259 271 261 261 265 231
278 285 276 283 285 266 253 229 203 139 132 130 127 124 127 130 132 135 140 136 137 134 132 130 126 126 122 109 119 130 120 133 145 252 247 259 256 261 253 251 268 238 248
289 296 297 288 266 254 257 235 161 134 131 127 126 127 128 131 136 134 134 134 130 127 128 118 119 119 114 118 102 111 93 84 266 272 263 262 255 268 262 255 249 245 268
324 317 321 320 308 259 211 131 124 126 128 128 130 127 130 133 135 133 130 132 125 123 116 112 111 117 111 95 103 78 56 26 15 341 328 289 267 265 265 250 252 260 261
319 332 351 355 3 31 101 107 114 115 120 121 121 124 133 133 129 125 120 118 120 116 111 111 109 109 98 122 94 72 43 14 346 338 320 297 282 296 297 291 257 251 253
313 27 34 37 28 41 75 94 101 106 116 121 117 122 125 119 126 118 115 115 115 110 111 110 108 104 124 106 87 83 39 360 337 313 309 305 300 283 295 303 301 296 291
48 56 39 57 67 67 71 90 102 109 105 107 107 115 112 103 102 100 106 114 113 113 105 102 118 126 121 108 82 46 30 348 326 319 312 311 314 322 293 291 291 297 297
84 77 62 63 65 76 74 83 93 96 100 100 102 101 91 95 107 115 114 104 105 111 109 116 118 118 129 101 73 49 27 357 339 323 315 312 299 296 305 284 263 258 261
86 85 79 82 74 79 88 90 86 90 93 95 96 96 103 126 113 104 121 118 118 102 107 125 117 104 122 140 103 82 51 358 317 298 300 301 298 305 311 309 276 274 271
90 90 92 90 89 84 85 84 78 78 77 81 96 104 123 116 119 135 110 92 102 122 117 103 115 155 150 187 328 24 140 277 278 282 287 306 319 318 312 314 315 311 299
98 91 88 88 93 92 91 88 86 74 73 81 93 104 116 122 131 101 94 106 108 95 100 92 68 92 153 326 337 330 226 260 286 294 304 297 313 314 323 319 323 299 305
104 106 101 93 87 96 99 105 106 115 113 107 88 86 99 110 107 109 107 91 99 98 99 93 59 44 28 7 356 355 347 335 335 308 292 284 311 327 323 324 315 317 332
130 123 116 119 113 105 115 118 113 112 119 130 140 144 131 121 115 103 100 91 93 100 82 70 61 15 6 3 357 350 344 337 327 303 305 326 328 326 328 318 324 328 315
140 140 136 128 123 133 125 128 137 145 143 124 115 116 122 104 85 82 91 102 91 81 71 60 41 358 346 341 324 312 315 308 307 297 302 327 332 326 319 321 314 302 301
139 138 135 124 125 126 126 135 137 133 124 126 134 120 102 100 93 81 106 99 82 113 109 113 68 11 345 312 334 335 322 310 323 341 348 331 326 323 319 317 314 309 306
128 134 134 132 131 130 127 127 132 138 144 133 115 119 112 107 99 100 69 57 98 79 72 79 72 252 299 328 338 331 331 343 340 4 333 323 319 315 316 317 312 306 306